Powrót do katalogu

STARLINK-37556

AktywnyŁącznośćSSO
NORAD 69660·PAYLOAD·🇺🇸 United States

Wystrzelony Jun 21, 2026 z Vandenberg Space Force Base

Loading…

Następne Przeloty (najbliższe 24 godziny)

TLE

ŚwieżeSource: CelesTrak SupGP

Epoka: Sep 15, 2026, 03:27 UTC

1 69660C 26143M   26258.14423611 -.00025804  00000+0 -80104-3 0  2582
2 69660  97.2842 301.3357 0001135  87.4778  26.6154 15.33451642    13

Śledź STARLINK-37556 w czasie rzeczywistym z AllMySat

Download on the App Store